Weather History for Manistique, MI

Change the Weather History Date:

Sunday, September 9, 2012

  Actual Average Record
Temperature  
Mean Temperature 56 °F -  
Max Temperature 68 °F 67 °F 81 °F (1961)
Min Temperature 44 °F 49 °F 32 °F (1986)
Degree Days  
Heating Degree Days 9    
Growing Degree Days 6 (Base 50)    
Moisture  
Dew Point 44 °F    
Average Humidity 71    
Maximum Humidity 93    
Minimum Humidity 35    
Precipitation  
Precipitation 0.00 in - - ()
Sea Level Pressure  
Sea Level Pressure 30.01 in    
Wind  
Wind Speed 6 mph (NNW)    
Max Wind Speed 16 mph    
Max Gust Speed 25 mph    
Visibility 10 miles    
Events      
Averages and records for this station are not official NWS values.
T = Trace of Precipitation, MM = Missing Value Source: NWS Daily Summary

Daily Weather History Graph

Daily Weather History Graph

Search for Another Location

Airport:

Trip Planner

Search our weather history database for the weather conditions in past years. The results will help you decide how hot, cold, wet, or windy it might be!

Date:

Astronomy

Sep. 09, 2012 Rise Set
Actual Time 7:16 AM EDT 8:06 PM EDT
Civil Twilight 6:45 AM EDT 8:36 PM EDT
Nautical Twilight 6:09 AM EDT 9:12 PM EDT
Astronomical Twilight 5:31 AM EDT 9:50 PM EDT
Moon 12:30 AM EDT (9/9) 4:05 PM EDT (9/9)
Length of Visible Light 13h 51m
Length of Day
12h 50m
Last Quarter, 39% of the Moon is Illuminated
Sep 9
Last Quarter
Sep 15
New
Sep 22
First Quarter
Sep 29
Full
Oct 8
Last Quarter

Hourly Weather History & Observations

Time (EDT) Temp. Windchill Dew Point Humidity Pressure Visibility Wind Dir Wind Speed Gust Speed Precip Events Conditions
12:14 AM 48.2 °F - 44.6 °F 87% 29.85 in 10.0 mi NNW 4.6 mph - N/A   Clear
12:40 AM 46.4 °F 45.2 °F 42.8 °F 87% 29.86 in 10.0 mi NW 3.5 mph - N/A   Clear
12:54 AM 46.4 °F 45.2 °F 42.8 °F 87% 29.86 in 10.0 mi NW 3.5 mph - N/A   Clear
1:14 AM 46.4 °F 44.3 °F 42.8 °F 87% 29.87 in 10.0 mi NW 4.6 mph - N/A   Clear
1:35 AM 44.6 °F 42.2 °F 42.8 °F 93% 29.87 in 10.0 mi NW 4.6 mph - N/A   Clear
1:54 AM 46.4 °F 45.2 °F 42.8 °F 87% 29.88 in 10.0 mi WNW 3.5 mph - N/A   Clear
2:15 AM 44.6 °F 41.4 °F 42.8 °F 93% 29.88 in 10.0 mi WNW 5.8 mph - N/A   Clear
2:35 AM 46.4 °F 44.3 °F 42.8 °F 87% 29.88 in 10.0 mi NW 4.6 mph - N/A   Clear
2:54 AM 48.2 °F - 44.6 °F 87% 29.88 in 10.0 mi NW 6.9 mph - N/A   Clear
3:15 AM 48.2 °F - 44.6 °F 87% 29.88 in 10.0 mi NW 6.9 mph - N/A   Clear
3:34 AM 48.2 °F - 44.6 °F 87% 29.89 in 10.0 mi NW 5.8 mph - N/A   Clear
3:54 AM 48.2 °F - 44.6 °F 87% 29.90 in 10.0 mi NW 6.9 mph - N/A   Clear
4:15 AM 46.4 °F 43.5 °F 44.6 °F 93% 29.90 in 10.0 mi NW 5.8 mph - N/A   Clear
4:34 AM 48.2 °F - 44.6 °F 87% 29.90 in 10.0 mi NW 5.8 mph - N/A   Clear
4:55 AM 46.4 °F 45.2 °F 42.8 °F 87% 29.91 in 10.0 mi NW 3.5 mph - N/A   Clear
5:15 AM 46.4 °F 43.5 °F 42.8 °F 87% 29.91 in 10.0 mi NW 5.8 mph - N/A   Clear
5:34 AM 44.6 °F 40.7 °F 42.8 °F 93% 29.92 in 10.0 mi NW 6.9 mph - N/A   Clear
5:55 AM 46.4 °F 43.5 °F 42.8 °F 87% 29.93 in 10.0 mi NW 5.8 mph - N/A   Clear
6:14 AM 44.6 °F 42.2 °F 42.8 °F 93% 29.93 in 10.0 mi NW 4.6 mph - N/A   Clear
6:34 AM 46.4 °F 42.4 °F 42.8 °F 87% 29.94 in 10.0 mi NW 8.1 mph - N/A   Clear
6:54 AM 46.4 °F 42.9 °F 42.8 °F 87% 29.95 in 10.0 mi NW 6.9 mph - N/A   Clear
7:14 AM 46.4 °F 42.9 °F 44.6 °F 93% 29.96 in 10.0 mi NW 6.9 mph - N/A   Clear
7:54 AM 44.6 °F 42.2 °F 42.8 °F 93% 29.97 in 10.0 mi West 4.6 mph - N/A   Clear
8:15 AM 44.6 °F 43.1 °F 42.8 °F 93% 29.98 in 10.0 mi WNW 3.5 mph - N/A   Clear
8:34 AM 48.2 °F - 46.4 °F 93% 29.99 in 10.0 mi Calm Calm - N/A   Clear
8:55 AM 51.8 °F - 48.2 °F 88% 29.99 in 10.0 mi WNW 5.8 mph - N/A   Clear
9:15 AM 53.6 °F - 48.2 °F 82% 29.99 in 10.0 mi WNW 5.8 mph - N/A   Scattered Clouds
9:34 AM 53.6 °F - 48.2 °F 82% 30.00 in 10.0 mi WNW 4.6 mph - N/A   Scattered Clouds
9:55 AM 55.4 °F - 48.2 °F 77% 30.01 in 10.0 mi NW 4.6 mph - N/A   Mostly Cloudy
10:14 AM 59.0 °F - 50.0 °F 72% 30.01 in 10.0 mi NW 8.1 mph - N/A   Scattered Clouds
10:34 AM 60.8 °F - 51.8 °F 72% 30.02 in 10.0 mi NNW 5.8 mph - N/A   Clear
10:55 AM 62.6 °F - 51.8 °F 68% 30.03 in 10.0 mi North 6.9 mph - N/A   Clear
11:35 AM 64.4 °F - 46.4 °F 52% 30.03 in 10.0 mi North 8.1 mph - N/A   Scattered Clouds
12:14 PM 64.4 °F - 42.8 °F 45% 30.03 in 10.0 mi North 9.2 mph 17.3 mph N/A   Mostly Cloudy
12:35 PM 66.2 °F - 41.0 °F 40% 30.04 in 10.0 mi NNE 12.7 mph - N/A   Scattered Clouds
12:54 PM 64.4 °F - 41.0 °F 42% 30.04 in 10.0 mi North 3.5 mph - N/A   Mostly Cloudy
1:14 PM 68.0 °F - 39.2 °F 35% 30.04 in 10.0 mi North 10.4 mph 19.6 mph N/A   Scattered Clouds
1:35 PM 64.4 °F - 39.2 °F 40% 30.05 in 10.0 mi North 10.4 mph 18.4 mph N/A   Mostly Cloudy
1:54 PM 66.2 °F - 41.0 °F 40% 30.05 in 10.0 mi NNW 6.9 mph - N/A   Overcast
2:15 PM 64.4 °F - 41.0 °F 42% 30.05 in 10.0 mi NW 10.4 mph 16.1 mph N/A   Overcast
2:35 PM 68.0 °F - 39.2 °F 35% 30.05 in 10.0 mi North 9.2 mph - N/A   Overcast
2:54 PM 68.0 °F - 41.0 °F 37% 30.05 in 10.0 mi NNW 12.7 mph 17.3 mph N/A   Mostly Cloudy
3:15 PM 66.2 °F - 39.2 °F 37% 30.05 in 10.0 mi North 9.2 mph 21.9 mph N/A   Scattered Clouds
3:34 PM 66.2 °F - 42.8 °F 43% 30.05 in 10.0 mi NW 12.7 mph 16.1 mph N/A   Mostly Cloudy
3:54 PM 68.0 °F - 39.2 °F 35% 30.05 in 10.0 mi WNW 13.8 mph 24.2 mph N/A   Mostly Cloudy
4:15 PM 68.0 °F - 42.8 °F 40% 30.06 in 10.0 mi NNW 12.7 mph 17.3 mph N/A   Scattered Clouds
4:34 PM 68.0 °F - 42.8 °F 40% 30.06 in 10.0 mi NNW 9.2 mph 21.9 mph N/A   Scattered Clouds
5:14 PM 68.0 °F - 44.6 °F 43% 30.07 in 10.0 mi NNW 12.7 mph 20.7 mph N/A   Overcast
5:35 PM 66.2 °F - 42.8 °F 43% 30.07 in 10.0 mi NNW 16.1 mph 25.3 mph N/A   Mostly Cloudy
5:55 PM 66.2 °F - 46.4 °F 49% 30.08 in 10.0 mi NNW 11.5 mph 16.1 mph N/A   Scattered Clouds
6:14 PM 64.4 °F - 46.4 °F 52% 30.08 in 10.0 mi NNW 8.1 mph 20.7 mph N/A   Scattered Clouds
6:35 PM 64.4 °F - 46.4 °F 52% 30.09 in 10.0 mi North 11.5 mph 16.1 mph N/A   Clear
6:54 PM 62.6 °F - 46.4 °F 55% 30.09 in 10.0 mi North 11.5 mph 17.3 mph N/A   Clear
7:14 PM 62.6 °F - 46.4 °F 55% 30.09 in 10.0 mi North 9.2 mph - N/A   Clear
7:35 PM 60.8 °F - 46.4 °F 59% 30.09 in 10.0 mi NNW 9.2 mph 17.3 mph N/A   Clear
7:54 PM 59.0 °F - 46.4 °F 63% 30.10 in 10.0 mi NNW 8.1 mph - N/A   Clear
8:15 PM 57.2 °F - 46.4 °F 67% 30.10 in 10.0 mi NNW 8.1 mph - N/A   Clear
8:35 PM 55.4 °F - 46.4 °F 72% 30.10 in 10.0 mi NNW 5.8 mph - N/A   Clear
8:54 PM 53.6 °F - 46.4 °F 77% 30.10 in 10.0 mi NNW 4.6 mph - N/A   Clear
9:15 PM 53.6 °F - 46.4 °F 77% 30.10 in 10.0 mi North 8.1 mph - N/A   Clear
9:34 PM 53.6 °F - 46.4 °F 77% 30.11 in 10.0 mi NNW 5.8 mph - N/A   Clear
9:54 PM 53.6 °F - 46.4 °F 77% 30.11 in 10.0 mi NNW 4.6 mph - N/A   Clear
10:15 PM 51.8 °F - 46.4 °F 82% 30.11 in 10.0 mi NNW 5.8 mph - N/A   Clear
10:34 PM 51.8 °F - 46.4 °F 82% 30.12 in 10.0 mi North 4.6 mph - N/A   Clear
10:55 PM 46.4 °F 45.2 °F 44.6 °F 93% 30.12 in 10.0 mi NNW 3.5 mph - N/A   Clear
11:15 PM 48.2 °F - 44.6 °F 87% 30.12 in 10.0 mi Calm Calm - N/A   Clear
11:34 PM 44.6 °F - 42.8 °F 93% 30.12 in 10.0 mi Calm Calm - N/A   Clear
11:55 PM 44.6 °F - 42.8 °F 93% 30.12 in 10.0 mi Calm Calm - N/A   Clear